Location: Stamford Observatory
(41.1241°N, 73.5498°W)
Time: 02:07:29
(UTC-04:00)

Daily predictions for brighter satellites

Satellite Brightness Start Highest point End
(mag) Time Altitude Azimuth Time Altitude Azimuth Time Altitude Azimuth
SL-16 R/B 4.3 02:31:15 27° NNE 02:31:15 27° NNE 02:34:28 10° N
CENTAUR R/B 4.1 02:42:56 29° NE 02:42:56 29° NE 02:46:18 10° NE
Cosmos 2322 Rocket 4.5 02:46:16 19° ENE 02:46:16 19° ENE 02:48:12 10° NE
SL-16 R/B 4.4 02:50:00 20° ENE 02:50:00 20° ENE 02:52:11 10° NE
CZ-2D R/B 3.9 03:09:15 10° NNE 03:11:58 29° NNE 03:11:58 29° NNE
Cosmos 2360 Rocket 4.3 03:16:06 19° E 03:16:06 19° E 03:19:42 10° NE
Cosmos 1980 Rocket 4.0 03:19:14 26° N 03:19:14 26° N 03:21:44 10° NNE
Resurs 1-4 Rocket 3.9 03:14:12 10° NNE 03:16:34 27° NNE 03:16:34 27° NNE
Okean O Rocket 4.4 03:29:52 10° ENE 03:31:55 13° E 03:32:21 13° E
FALCON 9 R/B 4.2 03:31:23 62° SW 03:33:13 66° S 04:12:06 10° ESE
Cosmos 2263 Rocket 3.7 03:28:07 10° NNW 03:31:06 29° N 03:31:06 29° N
ADEOS II 4.4 03:43:15 10° NE 03:46:54 19° E 03:49:54 12° SE
Cosmos 2315 Rocket 4.2 04:10:00 56° NW 04:10:00 56° NW 04:15:13 10° N
SL-16 R/B 4.2 04:16:19 19° NW 04:16:19 19° NW 04:18:09 10° NNW
Lacrosse 4 Rocket 3.5 04:09:32 10° N 04:13:07 27° NE 04:16:44 10° ESE
Cosmos 1975 4.4 04:10:45 10° NNE 04:14:27 33° ENE 04:14:55 32° E
Tiangong 2 3.9 04:27:08 18° E 04:27:08 18° E 04:28:07 10° E
SL-08 ROCKET BODY 4.2 04:20:03 10° N 04:25:57 89° W 04:27:25 53° S
Cosmos 2322 Rocket 2.9 04:28:06 39° NW 04:28:06 39° NW 04:32:38 10° N
Nadezhda 1 Rocket 4.3 04:26:10 25° SSE 04:29:48 62° E 04:35:47 10° NNE
USA 215 3.2 04:23:29 10° SE 04:30:03 83° NE 04:36:39 10° NW
ADEOS Rocket 3.6 04:25:10 10° N 04:29:19 36° NW 04:29:19 36° NW
CENTAUR R/B 3.5 04:30:07 32° NW 04:30:47 33° NW 04:37:01 10° NNE
SL-16 R/B 2.9 04:31:51 39° NW 04:31:51 39° NW 04:36:36 10° N
COSMOS 2428 3.8 04:32:15 20° SSE 04:35:39 41° ESE 04:40:57 10° NE
Cosmos 2074 Rocket 3.8 04:36:27 10° N 04:42:42 76° W 04:47:30 18° S
Cosmos 2219 Rocket 4.1 04:38:26 10° SSE 04:42:59 26° ESE 04:47:32 10° NE
CZ-2C R/B 4.4 04:39:45 10° SSE 04:44:13 53° ENE 04:48:38 10° N
ARIANE 5 R/B 4.3 04:42:02 10° NNW 04:44:11 18° NW 04:44:11 18° NW
Meteor 2-13 Rocket 4.4 04:42:11 10° N 04:48:22 90° E 04:54:30 10° S
ISS -1.6 04:51:36 19° SE 04:51:36 19° SE 04:52:43 10° SE
Cosmos 1844 Rocket 3.8 04:46:27 10° NNW 04:51:48 44° ENE 04:57:06 10° SE
Cosmos 1570 Rocket 4.3 04:50:48 27° S 04:53:38 67° ESE 04:58:49 10° NNE
IRS-1C Rocket 4.1 04:48:34 10° NNE 04:53:51 80° ESE 04:57:00 25° S
CZ-2D R/B 3.8 04:50:29 10° NNW 04:53:19 18° NW 04:53:19 18° NW
Cosmos 1544 Rocket 3.8 04:53:18 10° NNW 04:57:05 50° WNW 04:57:05 50° WNW
MTI 4.0 04:58:45 68° NNE 04:58:45 68° NNE 05:01:44 10° N
Resurs 1-4 Rocket 3.9 04:55:32 10° NNW 04:57:40 16° NW 04:57:40 16° NW
Cosmos 2360 Rocket 2.3 04:57:54 45° WSW 04:59:17 57° WNW 05:04:51 10° NNE
Cosmos 1980 Rocket 4.4 05:01:06 10° NW 05:01:28 10° NW 05:01:49 10° NW
Cosmos 2278 Rocket 4.5 04:57:01 10° N 05:01:38 25° NE 05:06:13 10° ESE
CZ-4B R/B 2.6 04:59:02 10° N 05:02:24 63° NW 05:02:24 63° NW
Cosmos 1812 4.3 05:04:57 22° NW 05:04:57 22° NW 05:06:49 10° NNW
Cosmos 2237 Rocket 4.3 05:03:18 10° SSE 05:07:49 25° ESE 05:12:21 10° NE
Okean O Rocket 1.7 05:04:15 10° N 05:08:38 58° WNW 05:09:49 43° SW
PAYLOAD B 4.2 05:08:30 10° N 05:14:05 68° WNW 05:18:05 19° SSW
Cosmos 2184 Rocket 4.3 05:11:05 10° NNW 05:16:52 42° W 05:22:40 10° SSW
Cosmos 1340 3.2 05:18:04 38° WNW 05:18:04 38° WNW 05:21:31 10° N
Okean-O 3.6 05:14:17 10° NNE 05:18:35 48° E 05:22:52 10° S
Meteor 1-12 Rocket 4.4 05:13:56 10° NNW 05:19:19 47° W 05:24:44 10° SSW
DELTA 2 R/B (1) 3.8 05:20:34 29° SW 05:23:21 60° SSE 05:28:49 10° E
Cosmos 2333 Rocket 3.2 05:18:25 10° S 05:23:49 46° ESE 05:29:16 10° NE
ATLAS 5 CENTAUR R/B 3.8 05:18:18 10° NNW 05:23:51 39° NE 05:29:50 10° ESE
Cosmos 1666 3.2 05:21:20 10° N 05:25:11 61° E 05:29:01 10° SSE
ADEOS II 2.2 05:21:49 10° N 05:26:56 53° WNW 05:30:52 17° SW
Cosmos 1743 2.6 05:23:31 10° NNW 05:27:23 72° W 05:31:12 10° S
Meteor 1-31 Rocket 3.1 05:24:09 10° NNE 05:27:56 63° E 05:31:42 10° S
Cosmos 1455 Rocket 3.9 05:27:45 10° NNW 05:31:30 28° W 05:32:07 27° WSW
Cosmos 1025 Rocket 3.8 05:27:22 10° S 05:31:38 55° E 05:35:56 10° NNE
MOS 1 Rocket 4.5 05:28:49 10° NNW 05:32:30 23° WNW 05:33:13 22° W
Cosmos 2322 4.4 05:29:55 24° WSW 05:32:34 37° WNW 05:37:52 10° N
Lacrosse 5 3.7 05:34:51 13° SSW 05:34:51 13° SSW 05:35:52 10° SSW
EO 1 Del DPAF 4.0 05:34:10 22° SW 05:35:49 31° W 05:39:18 10° NW
Cosmos 962 Rocket 4.4 05:31:37 10° N 05:37:52 75° W 05:44:10 10° S
Meteor 1-13 Rocket 4.2 05:34:30 10° SSW 05:39:57 62° WNW 05:45:31 10° N
USA 116 3.9 05:40:29 10° S 05:44:32 69° W 05:49:12 10° NNW
Cosmos 1238 Rocket 2.9 05:46:13 23° WSW 05:47:21 31° W 05:50:01 10° NNW
Cosmos 2154 Rocket 4.3 05:44:43 10° NNW 05:50:31 43° W 05:56:18 10° SSW
Cosmos 1975 4.3 05:48:01 10° NW 05:50:38 17° W 05:50:38 17° W
Cosmos 2333 4.4 05:46:11 11° SW 05:51:32 54° WNW 05:57:08 10° NNE
Meteor 2-19 Rocket 4.4 05:45:28 10° NNW 05:51:33 71° W 05:57:33 10° S
Lacrosse 4 Rocket 2.2 05:48:09 10° NW 05:51:47 29° WSW 05:55:28 10° S
Cosmos 1814 Rocket 4.4 05:48:05 10° S 05:53:14 65° ESE 05:58:21 10° NNE
Cosmos 1844 3.7 05:47:55 10° NNW 05:53:42 77° WSW 05:59:23 10° SSE
SJ-6F 4.4 05:50:42 10° NNE 05:54:48 89° WNW 05:58:52 10° SSW
Aureole 2 Rocket 3.1 05:54:57 10° S 05:58:38 58° ESE 06:02:01 10° NNE
CZ-4B R/B 4.1 05:54:43 10° N 05:59:37 31° WNW 06:04:26 10° SW
Meteor PRIRODA 4.4 05:57:42 10° N 06:01:06 33° WNW 06:04:31 10° SW
Tiangong 2 1.1 05:59:14 15° W 06:01:40 61° SSW 06:04:46 10° ESE
Iridium 2 3.6 05:58:17 10° N 06:02:07 83° W 06:05:57 10° S
Cosmos 1437 2.9 05:59:02 10° S 06:02:17 76° E 06:05:34 10° NNE
SL-16 R/B 4.3 05:57:49 10° SSE 06:02:39 30° ESE 06:07:30 10° NE
Cosmos 1867 3.8 06:00:15 10° NNW 06:05:44 78° ENE 06:11:10 10° SE
Cosmos 2058 Rocket 4.1 06:01:40 10° N 06:06:05 52° E 06:10:26 10° SSE
SKYMED 2 3.7 06:03:22 10° SSE 06:07:42 81° ENE 06:12:04 10° N
Geosat 4.4 06:02:48 10° SE 06:07:48 71° ENE 06:12:49 10° NNW
Okean 1-7 Rocket 3.9 06:03:59 10° SSW 06:08:19 44° WNW 06:12:38 10° N
Cosmos 2181 Rocket 4.2 06:04:37 10° SSW 06:10:35 49° WNW 06:16:41 10° N
USA 215 4.2 06:08:09 10° S 06:13:29 26° SW 06:18:50 10° WNW
Cosmos 1980 3.7 06:08:17 10° SSW 06:13:55 85° WNW 06:19:37 10° NNE
SL-8 Rocket 4.0 06:08:27 10° NNW 06:14:36 63° W 06:20:39 10° S
Meteor 1-23 Rocket 4.4 06:12:38 10° SSW 06:18:21 58° WNW 06:24:04 10° N
COSMOS 2428 3.6 06:15:06 10° WSW 06:20:01 30° NW 06:24:59 10° N
ERS-2 3.4 06:17:10 10° NNW 06:20:09 23° WNW 06:23:07 10° WSW
Radarsat Rocket 4.0 06:15:58 10° NNE 06:22:00 85° WNW 06:27:48 10° SSW
Thor Agena Rocket 3.8 06:17:56 10° S 06:22:46 45° W 06:27:37 10° NNW
USA 229 DEB 3.8 06:18:22 10° SW 06:25:07 62° NW 06:32:03 10° NNE
USA 229 3.8 06:18:28 10° SW 06:25:13 63° NW 06:32:08 10° NNE
Cosmos 2219 Rocket 2.6 06:21:22 10° SW 06:26:40 43° WNW 06:31:59 10° NNE
